Temp
-6 -5 -5 -5 -5 -5 -5 -5 -5 -6 -6 -6 -6 -6 -6 -6 -7 -7 -7 -7 -7 -7 -7 -7 -6 -7 -7 -7 -7 -7 -8 -7 -8 -8 -8 -8 -7 -7 -7 -7 -8 -8 -8
-4 -4 -4 -5 -5 -5 -5 -5 -5 -6 -6 -6 -6 -6 -7 -7 -7 -7 -7 -7 -7 -7 -7 -7 -7 -7 -8 -7 -7 -8 -7 -7 -7 -7 -7 -7 -8 -8 -8 -8 -8 -8 -8
-5 -4 -5 -5 -5 -5 -6 -6 -6 -6 -6 -6 -6 -7 -7 -7 -8 -8 -8 -8 -7 -7 -7 -7 -7 -7 -7 -7 -8 -7 -7 -7 -7 -7 -8 -8 -8 -8 -8 -8 -8 -8 -8
-4 -4 -5 -5 -6 -6 -6 -6 -6 -6 -6 -7 -7 -7 -7 -8 -8 -7 -7 -7 -7 -7 -7 -7 -7 -7 -7 -7 -7 -7 -8 -7 -7 -8 -8 -8 -8 -8 -8 -8 -8 -8 -8
-5 -5 -6 -6 -6 -6 -6 -6 -7 -7 -7 -7 -7 -7 -8 -8 -8 -8 -8 -8 -8 -8 -8 -8 -8 -7 -7 -8 -8 -8 -7 -8 -8 -8 -8 -8 -8 -8 -8 -8 -8 -8 -8
-6 -6 -6 -7 -7 -7 -7 -7 -7 -7 -7 -7 -7 -7 -8 -8 -8 -8 -8 -8 -8 -8 -8 -8 -8 -8 -8 -8 -8 -8 -8 -8 -8 -8 -8 -8 -8 -8 -8 -8 -8 -8 -8
-6 -6 -6 -7 -7 -7 -7 -7 -7 -7 -7 -7 -7 -8 -8 -8 -8 -8 -8 -8 -8 -8 -8 -8 -8 -8 -8 -8 -8 -8 -8 -8 -7 -8 -8 -8 -8 -8 -8 -8 -8 -8 -8
-7 -7 -7 -7 -7 -7 -7 -7 -7 -7 -7 -7 -7 -7 -7 -7 -8 -8 -8 -8 -8 -8 -8 -8 -8 -8 -7 -7 -8 -7 -7 -8 -8 -8 -8 -8 -8 -8 -8 -8 -8 -8 -8
-7 -7 -7 -7 -8 -8 -8 -8 -7 -7 -7 -7 -7 -7 -7 -7 -7 -7 -8 -8 -8 -8 -8 -8 -8 -8 -7 -7 -7 -8 -8 -8 -8 -7 -7 -8 -8 -8 -8 -8 -8 -8 -9
-7 -7 -7 -7 -7 -7 -7 -7 -7 -7 -7 -7 -7 -7 -7 -7 -7 -7 -7 -7 -7 -8 -7 -8 -8 -8 -8 -7 -7 -7 -7 -8 -8 -8 -7 -8 -8 -8 -8 -8 -8 -8 -8
-7 -6 -7 -7 -7 -7 -7 -7 -7 -7 -7 -7 -7 -7 -7 -7 -7 -7 -7 -7 -7 -7 -7 -7 -7 -7 -7 -7 -7 -7 -7 -8 -7 -7 -8 -8 -8 -8 -8 -8 -8 -8 -8
-6 -6 -6 -7 -7 -7 -7 -7 -7 -7 -7 -7 -7 -7 -7 -7 -7 -7 -7 -7 -7 -7 -7 -7 -7 -7 -7 -6 -7 -7 -7 -7 -8 -7 -7 -7 -7 -9 -8 -8 -8 -8 -8
-6 -6 -6 -6 -7 -7 -7 -7 -7 -7 -7 -7 -7 -6 -7 -7 -7 -7 -7 -7 -7 -7 -7 -7 -7 -7 -7 -7 -7 -7 -7 -7 -7 -7 -7 -7 -7 -7 -8 -7 -8 -8 -8
-5 -5 -6 -6 -6 -6 -6 -7 -7 -7 -7 -7 -6 -7 -7 -7 -7 -7 -7 -7 -7 -7 -7 -7 -7 -7 -7 -7 -7 -7 -7 -7 -7 -7 -7 -7 -7 -7 -7 -7 -8 -8 -8
-5 -5 -5 -6 -6 -6 -6 -6 -7 -7 -7 -6 -7 -7 -7 -7 -7 -7 -7 -7 -7 -8 -7 -7 -7 -7 -7 -7 -7 -7 -7 -7 -7 -7 -7 -7 -7 -7 -8 -8 -8 -8 -8
-5 -5 -6 -6 -6 -6 -6 -6 -6 -6 -7 -6 -6 -6 -6 -7 -7 -7 -7 -7 -7 -7 -7 -7 -7 -7 -7 -7 -7 -7 -7 -8 -8 -8 -8 -8 -8 -8 -8 -8 -8 -8 -8
-5 -5 -5 -6 -6 -6 -6 -6 -6 -6 -6 -6 -6 -6 -6 -7 -7 -7 -7 -7 -7 -7 -7 -7 -7 -7 -7 -7 -7 -7 -7 -7 -7 -7 -8 -8 -8 -8 -8 -9 -9 -8 -8
-5 -5 -5 -5 -6 -6 -6 -6 -6 -6 -6 -6 -6 -6 -6 -7 -7 -7 -7 -7 -7 -8 -8 -7 -7 -7 -7 -8 -8 -8 -8 -8 -8 -8 -8 -8 -8 -9 -8 -8 -8 -8 -9
-5 -5 -5 -5 -5 -6 -6 -6 -6 -6 -6 -6 -6 -6 -7 -7 -7 -7 -7 -8 -8 -8 -8 -8 -7 -8 -8 -8 -8 -8 -9 -9 -9 -9 -9 -9 -9 -8 -8 -8 -9 -8 -8
-5 -5 -5 -5 -5 -5 -6 -6 -6 -6 -6 -6 -6 -6 -6 -6 -6 -6 -6 -7 -8 -8 -8 -8 -8 -8 -8 -8 -8 -8 -8 -8 -8 -8 -8 -8 -8 -8 -8 -8 -8 -8 -8
-4 -4 -4 -5 -5 -5 -5 -5 -6 -6 -6 -6 -6 -6 -6 -6 -6 -6 -6 -6 -6 -7 -6 -6 -6 -6 -7 -7 -8 -8 -8 -8 -7 -7 -6 -6 -7 -7 -7 -8 -8 -8 -8
-4 -4 -4 -4 -4 -5 -5 -5 -5 -5 -5 -6 -6 -6 -6 -6 -6 -6 -6 -6 -6 -6 -6 -6 -7 -7 -7 -7 -7 -7 -7 -8 -7 -7 -7 -7 -7 -7 -7 -8 -8 -8 -8
-3 -4 -4 -4 -4 -4 -5 -5 -5 -5 -5 -6 -5 -5 -6 -6 -6 -6 -7 -7 -7 -7 -7 -7 -7 -7 -7 -7 -7 -7 -7 -7 -8 -8 -8 -8 -8 -8 -8 -8 -8 -8 -8
-4 -4 -4 -4 -4 -4 -4 -5 -5 -5 -5 -5 -5 -5 -5 -6 -6 -6 -7 -7 -7 -7 -7 -8 -8 -8 -8 -8 -7 -7 -7 -7 -6 -7 -9 -8 -9 -9 -9 -9 -8 -9 -9
-4 -4 -4 -4 -5 -5 -5 -5 -5 -5 -5 -5 -5 -5 -6 -6 -6 -6 -7 -7 -8 -8 -8 -8 -8 -8 -8 -8 -8 -8 -8 -8 -7 -7 -8 -9 -9 -10 -9 -9 -9 -9 -10
-4 -4 -4 -4 -4 -5 -5 -5 -5 -5 -5 -5 -5 -5 -6 -6 -7 -7 -7 -8 -8 -8 -8 -8 -8 -9 -9 -8 -8 -8 -8 -9 -8 -8 -8 -9 -9 -10 -11 -10 -10 -10 -10
Height
5913 5913 5912 5913 5913 5914 5914 5914 5914 5914 5915 5915 5916 5915 5915 5915 5914 5914 5913 5914 5914 5913 5913 5912 5912 5910 5910 5908 5909 5908 5907 5907 5906 5905 5906 5905 5904 5903 5902 5901 5900 5901 5900
5914 5912 5914 5914 5914 5915 5915 5915 5916 5916 5916 5916 5916 5916 5916 5916 5915 5914 5915 5915 5914 5914 5913 5912 5912 5910 5910 5909 5909 5909 5909 5909 5908 5908 5905 5904 5904 5903 5902 5901 5901 5901 5901
5912 5913 5914 5915 5915 5916 5915 5916 5917 5918 5918 5917 5918 5918 5918 5917 5917 5917 5917 5916 5916 5915 5915 5914 5913 5912 5911 5910 5909 5908 5909 5908 5906 5906 5906 5905 5905 5905 5905 5904 5904 5903 5902
5914 5915 5915 5916 5916 5917 5917 5918 5919 5919 5920 5920 5919 5918 5918 5918 5918 5918 5918 5918 5917 5917 5915 5914 5913 5913 5913 5911 5909 5908 5907 5907 5907 5908 5908 5909 5908 5908 5908 5907 5907 5906 5905
5916 5916 5916 5917 5917 5918 5919 5919 5920 5920 5921 5921 5920 5920 5920 5919 5919 5919 5919 5919 5918 5917 5916 5914 5914 5913 5913 5912 5911 5909 5909 5910 5910 5910 5911 5910 5908 5909 5908 5907 5907 5907 5907
5917 5917 5917 5917 5918 5919 5920 5920 5921 5922 5923 5922 5922 5921 5921 5920 5920 5920 5920 5919 5918 5917 5916 5914 5913 5911 5911 5911 5911 5912 5913 5913 5911 5910 5908 5907 5908 5910 5909 5907 5907 5907 5907
5918 5918 5918 5918 5920 5920 5921 5921 5923 5924 5924 5923 5922 5922 5922 5921 5921 5920 5919 5918 5917 5916 5915 5913 5912 5910 5909 5910 5912 5914 5914 5912 5911 5910 5908 5910 5909 5909 5909 5908 5906 5907 5906
5918 5919 5919 5920 5921 5921 5921 5923 5924 5925 5924 5924 5923 5924 5923 5922 5922 5921 5919 5917 5916 5916 5915 5914 5913 5911 5909 5909 5913 5914 5914 5916 5913 5913 5913 5914 5912 5908 5908 5908 5907 5905 5906
5919 5920 5920 5921 5921 5921 5923 5924 5925 5925 5924 5924 5925 5926 5925 5924 5924 5924 5922 5920 5919 5918 5917 5916 5915 5913 5910 5911 5911 5910 5912 5915 5914 5913 5913 5913 5912 5910 5906 5906 5906 5904 5905
5919 5919 5920 5921 5921 5922 5924 5924 5925 5925 5925 5925 5926 5926 5927 5926 5927 5926 5924 5923 5921 5920 5919 5918 5916 5913 5912 5911 5910 5909 5911 5912 5913 5914 5913 5907 5910 5909 5905 5905 5904 5903 5902
5919 5920 5920 5920 5921 5922 5924 5925 5926 5926 5926 5927 5927 5928 5928 5929 5928 5927 5925 5924 5922 5921 5920 5919 5918 5916 5914 5911 5910 5909 5911 5914 5912 5912 5909 5909 5906 5901 5899 5901 5902 5899 5899
5920 5920 5920 5921 5922 5923 5924 5926 5927 5928 5928 5929 5929 5930 5930 5930 5930 5928 5927 5926 5925 5923 5922 5921 5920 5918 5917 5916 5915 5914 5913 5914 5913 5910 5908 5904 5901 5898 5894 5899 5899 5896 5894
5922 5921 5921 5922 5923 5924 5926 5928 5930 5929 5930 5931 5932 5933 5933 5931 5931 5928 5930 5928 5926 5925 5924 5924 5923 5921 5919 5917 5917 5916 5915 5913 5912 5911 5911 5909 5904 5898 5897 5898 5898 5895 5894
5923 5923 5923 5924 5924 5926 5927 5929 5931 5932 5933 5934 5933 5934 5934 5934 5933 5933 5932 5930 5927 5926 5926 5926 5925 5922 5920 5918 5917 5916 5915 5913 5911 5909 5908 5907 5905 5903 5900 5898 5896 5895 5893
5925 5925 5925 5926 5927 5928 5929 5930 5933 5935 5935 5936 5935 5937 5935 5936 5935 5933 5932 5929 5928 5928 5928 5927 5924 5921 5920 5918 5916 5914 5912 5911 5909 5906 5904 5903 5901 5899 5896 5895 5892 5891 5889
5928 5928 5927 5928 5929 5930 5932 5933 5936 5937 5938 5939 5940 5939 5939 5936 5935 5934 5933 5931 5931 5931 5930 5927 5923 5921 5921 5919 5917 5914 5912 5909 5907 5905 5903 5900 5897 5895 5893 5890 5889 5887 5886
5930 5930 5929 5930 5931 5932 5934 5936 5936 5938 5940 5941 5940 5939 5938 5937 5937 5935 5934 5932 5931 5930 5929 5925 5922 5921 5920 5918 5916 5913 5911 5910 5907 5904 5902 5900 5897 5894 5890 5888 5885 5883 5882
5930 5931 5931 5933 5934 5935 5936 5937 5939 5941 5941 5941 5941 5940 5939 5938 5937 5935 5934 5933 5930 5927 5925 5923 5922 5921 5919 5918 5915 5913 5909 5906 5904 5902 5898 5894 5891 5889 5888 5885 5881 5878 5875
5932 5933 5934 5935 5936 5936 5937 5939 5940 5941 5941 5940 5940 5940 5940 5938 5937 5934 5933 5931 5927 5926 5926 5923 5922 5920 5918 5916 5913 5912 5909 5905 5902 5899 5896 5893 5890 5886 5882 5879 5877 5873 5870
5933 5934 5934 5936 5937 5937 5938 5939 5940 5941 5941 5941 5941 5941 5941 5939 5936 5934 5933 5930 5926 5925 5924 5922 5921 5920 5918 5915 5912 5909 5906 5903 5900 5895 5892 5890 5887 5882 5877 5873 5869 5865 5862
5934 5935 5935 5936 5936 5937 5938 5938 5940 5941 5941 5941 5941 5941 5940 5939 5938 5936 5934 5932 5929 5926 5923 5920 5919 5918 5916 5913 5911 5908 5904 5900 5895 5890 5886 5881 5878 5874 5870 5866 5863 5860 5855
5936 5935 5934 5935 5936 5937 5937 5938 5939 5941 5941 5941 5941 5941 5940 5938 5938 5937 5936 5934 5931 5927 5925 5922 5919 5916 5914 5912 5908 5906 5902 5895 5889 5885 5880 5875 5870 5867 5863 5858 5854 5850 5848
5934 5935 5935 5936 5937 5937 5938 5939 5940 5941 5941 5941 5941 5941 5940 5939 5938 5938 5935 5933 5930 5928 5925 5921 5919 5915 5910 5907 5905 5902 5899 5895 5891 5884 5879 5874 5868 5863 5858 5853 5847 5843 5838
5935 5936 5936 5936 5937 5937 5938 5939 5940 5941 5941 5941 5941 5940 5940 5939 5937 5936 5934 5931 5928 5926 5923 5920 5917 5913 5910 5906 5901 5896 5891 5887 5882 5879 5870 5865 5860 5855 5851 5847 5841 5836 5831
5935 5936 5937 5937 5937 5938 5938 5939 5940 5941 5941 5941 5940 5940 5939 5938 5937 5936 5932 5929 5926 5923 5920 5917 5914 5911 5909 5905 5901 5894 5888 5880 5874 5868 5864 5860 5852 5846 5841 5835 5829 5824 5820
5934 5934 5935 5936 5937 5938 5939 5939 5940 5940 5940 5940 5939 5939 5938 5937 5935 5932 5929 5927 5925 5921 5916 5913 5910 5909 5906 5901 5893 5886 5881 5875 5869 5863 5857 5850 5846 5841 5835 5827 5820 5814 5809
Wind_Speed
13 14 12 7 8 7 8 9 9 9 9 8 7 6 6 6 8 9 10 9 7 9 8 7 7 9 8 10 7 6 9 11 11 11 10 9 8 10 11 12 13 12 12
15 15 10 8 8 7 8 8 7 8 6 6 7 6 6 5 5 6 4 7 5 4 7 7 7 8 7 7 6 5 8 9 7 9 10 11 11 11 11 12 13 12 11
16 14 13 10 10 9 10 9 8 7 7 8 6 6 4 3 3 2 1 4 4 5 6 7 5 7 5 4 7 6 8 7 8 11 9 11 11 12 11 10 11 10 10
15 15 15 13 11 10 11 10 8 7 9 7 5 3 2 2 4 4 4 4 4 4 6 7 6 6 4 3 5 6 7 6 8 9 10 8 10 9 8 7 8 9 9
13 16 16 15 13 12 11 8 9 9 7 6 5 4 2 2 3 2 2 3 3 4 4 7 7 6 9 6 2 4 4 5 6 8 7 6 8 5 4 5 6 8 9
15 17 16 15 13 11 10 9 8 6 6 6 6 5 5 5 5 3 4 4 5 5 7 10 11 13 9 6 2 4 5 5 5 4 4 3 2 4 1 3 4 4 7
15 14 14 13 11 10 8 7 6 5 6 6 7 6 7 9 8 8 7 6 5 3 3 3 3 4 9 7 3 3 4 4 4 4 5 3 2 2 5 2 2 3 3
15 12 13 12 10 9 8 8 7 7 5 6 9 10 13 13 14 13 12 12 10 9 8 6 5 6 5 4 9 8 5 3 5 4 8 8 8 5 6 6 5 3 5
12 12 12 11 11 9 8 8 8 7 9 11 12 13 14 17 19 21 22 20 22 20 18 14 18 14 7 5 3 8 14 11 8 9 13 14 12 10 10 9 9 7 8
11 11 12 11 10 8 9 9 10 10 10 12 13 14 17 16 16 17 17 17 20 19 17 16 17 18 19 14 5 3 3 3 7 12 18 22 8 11 10 11 10 11 11
9 9 10 10 9 9 10 11 11 11 12 13 14 16 14 13 13 16 17 15 17 17 17 18 21 22 23 23 20 9 5 8 5 5 11 13 8 7 9 11 12 11 12
9 10 10 10 9 11 11 12 12 14 15 17 15 13 13 15 18 17 18 16 16 17 18 19 19 19 20 20 19 16 11 9 8 11 13 15 13 12 9 14 15 16 14
9 11 11 11 11 12 13 15 14 17 19 17 13 14 16 17 18 19 15 14 16 15 15 15 16 17 18 18 16 14 11 10 10 10 10 10 11 14 14 12 12 12 14
14 14 13 12 14 15 16 18 18 19 17 13 15 14 14 16 14 14 14 16 17 15 14 14 13 13 13 13 11 9 10 11 10 11 10 9 9 10 12 15 15 16 16
15 14 14 14 16 15 18 20 21 18 16 15 14 11 13 13 12 13 15 17 17 12 7 5 9 13 12 11 9 9 10 11 14 17 17 18 19 18 17 17 16 19 20
13 15 16 16 16 18 18 19 17 17 15 13 12 13 12 12 12 14 15 14 12 6 2 4 10 10 9 10 10 11 12 13 14 16 19 19 19 20 21 22 23 23 23
11 13 15 16 16 17 17 15 13 12 13 11 10 10 10 11 12 11 10 7 7 4 4 9 8 8 9 11 12 16 17 17 18 18 17 18 20 21 21 22 23 24 26
9 9 13 15 16 16 15 14 13 12 10 8 8 10 11 11 10 8 9 10 10 10 10 11 9 10 12 16 16 19 21 21 22 25 27 30 31 32 28 27 27 31 31
6 8 10 12 14 15 14 12 9 10 7 7 7 10 11 9 10 11 12 13 11 12 13 12 13 13 15 19 21 20 22 23 26 28 29 31 30 32 32 30 28 27 27
6 7 9 10 11 12 12 10 8 8 6 5 7 8 6 10 13 13 16 16 15 16 20 16 15 13 15 20 25 24 24 27 33 31 33 33 35 36 37 38 37 38 33
6 7 8 9 9 9 9 7 5 4 4 4 4 4 7 10 10 12 16 16 16 18 22 22 20 17 15 16 19 23 27 32 34 36 38 38 39 39 39 40 38 38 38
8 8 8 7 7 7 6 6 5 5 6 5 3 2 4 6 6 7 10 14 13 14 17 18 18 19 20 21 24 25 28 33 38 40 40 41 42 42 42 41 41 43 42
9 9 7 6 7 6 6 7 7 7 7 6 3 1 2 6 2 3 9 8 12 12 13 15 15 16 19 20 23 24 24 26 30 34 36 37 38 38 40 42 43 43 43
4 6 8 7 6 7 7 8 7 7 6 4 2 2 4 5 6 3 9 8 12 11 13 14 15 19 24 27 28 31 31 32 33 33 37 40 40 40 40 41 41 41 42
4 7 7 7 6 6 7 7 5 5 4 5 3 3 6 6 7 8 10 11 14 12 14 16 19 22 32 27 36 36 40 42 43 41 39 41 44 44 44 45 44 43 43
5 6 6 5 6 6 6 5 4 2 3 6 6 6 8 8 10 13 15 15 15 16 17 20 22 25 30 31 44 33 46 46 44 45 41 41 41 44 42 44 44 44 45
Wind_Direction
127 117 114 115 114 132 135 136 131 131 136 138 136 117 110 110 85 91 87 74 72 59 56 68 76 68 53 59 64 72 65 54 58 62 63 57 54 67 67 65 72 73 69
110 122 129 134 131 139 130 126 125 124 122 109 86 95 102 80 92 118 62 29 40 42 60 54 70 78 67 67 74 74 73 62 60 68 59 54 45 46 58 66 71 73 70
123 131 135 140 137 141 130 128 125 117 112 103 102 112 101 89 85 358 354 20 61 47 17 11 27 64 69 73 68 68 75 69 61 56 49 49 50 42 42 55 64 63 65
121 131 135 138 136 141 134 128 126 122 112 111 114 129 100 74 55 66 52 18 2 329 332 340 5 9 16 24 74 51 65 55 57 61 52 42 51 48 48 61 54 51 54
121 131 135 135 136 135 131 132 132 128 124 109 110 118 113 82 58 28 358 358 339 331 324 335 313 312 316 300 51 89 50 40 39 50 56 41 44 37 65 55 48 36 39
130 131 127 129 134 133 133 141 145 134 113 102 96 78 53 49 44 12 2 356 341 326 291 288 282 295 320 238 272 38 25 6 21 23 25 32 38 333 12 75 46 38 30
129 128 127 127 133 134 141 147 129 112 109 88 82 82 76 71 67 59 54 43 40 57 20 14 320 292 310 240 251 57 36 11 4 359 297 315 329 330 317 353 21 355 10
128 133 136 133 129 132 141 133 118 113 103 76 83 82 78 78 73 66 65 63 59 72 77 75 32 353 338 288 248 253 275 20 312 329 332 324 321 320 311 316 307 315 307
131 137 138 129 127 134 124 117 107 91 84 83 85 82 86 80 78 75 72 72 67 66 58 71 51 38 4 344 289 262 249 280 281 310 322 298 283 302 301 300 297 297 295
134 136 137 127 124 118 108 107 100 94 93 93 94 95 90 79 76 64 64 55 59 59 56 43 47 41 43 49 49 230 256 322 292 297 296 304 262 291 294 282 290 299 301
142 145 130 121 124 122 111 106 102 101 100 98 100 88 87 75 68 64 67 57 59 63 60 57 57 49 54 54 57 74 73 55 41 3 4 15 338 314 292 286 284 294 303
125 118 115 117 119 114 112 105 105 106 101 99 96 89 85 79 72 60 57 56 59 62 60 52 48 51 51 57 64 66 65 57 49 36 20 18 11 326 357 357 340 318 288
99 108 113 115 115 107 103 102 103 106 103 103 98 80 77 65 57 54 50 52 56 50 50 47 46 39 38 41 42 46 39 30 22 22 14 11 358 351 356 340 331 333 323
110 118 114 109 107 107 107 109 112 110 105 98 86 72 67 64 60 60 53 52 50 38 31 31 33 45 38 37 31 25 13 1 352 347 352 349 342 337 324 322 317 315 309
101 106 109 109 109 108 112 112 116 114 107 96 90 82 69 68 55 48 48 53 48 32 20 3 35 30 19 18 14 7 8 357 356 352 350 345 340 334 326 319 315 309 310
100 106 109 112 112 117 119 116 114 108 106 109 98 82 70 58 49 42 41 51 52 36 342 37 36 22 4 354 356 357 354 352 346 340 339 335 331 324 321 319 316 311 303
109 117 108 110 111 118 120 120 112 109 116 110 86 72 58 54 47 35 40 51 66 41 359 26 22 3 349 347 352 355 350 347 341 336 330 324 322 317 314 311 307 304 301
110 126 115 119 125 129 131 125 126 131 128 105 76 64 56 50 39 22 13 356 9 357 358 6 357 349 349 342 340 347 341 338 334 333 333 330 330 328 325 317 316 316 310
109 124 133 132 133 136 137 134 131 133 115 88 62 60 62 51 28 10 6 3 352 336 342 335 336 346 338 336 334 330 326 330 331 327 330 329 320 320 323 318 311 317 311
122 136 138 144 146 141 145 152 146 133 120 92 74 80 67 41 37 31 34 22 14 18 17 355 332 323 334 334 335 330 323 325 324 327 321 319 320 323 325 325 324 323 318
116 130 132 147 152 155 157 157 154 141 125 114 100 81 50 55 59 66 38 33 20 18 12 15 14 1 350 338 333 325 322 321 323 320 317 319 321 318 319 316 318 313 311
112 105 104 115 145 155 157 153 152 141 131 135 135 57 35 35 82 56 36 39 25 16 8 3 358 352 345 336 332 324 323 324 322 319 317 317 315 314 314 314 315 312 312
101 106 114 128 139 147 156 158 158 154 152 165 185 244 340 33 57 323 19 11 15 11 353 340 336 326 323 319 315 318 319 315 314 314 312 308 308 310 311 310 307 305 302
144 143 141 144 146 152 159 161 166 164 170 189 224 319 334 339 359 13 16 12 1 345 336 334 327 321 325 327 329 330 329 329 325 320 318 316 315 313 312 310 306 304 301
139 155 152 141 146 150 156 152 159 176 211 240 251 336 332 320 6 9 6 9 358 330 323 316 315 336 340 323 335 328 326 325 319 322 320 318 315 317 317 313 309 307 304
169 154 157 154 153 159 167 168 162 207 285 299 311 302 309 353 2 7 9 2 344 326 325 324 326 330 338 329 330 328 325 321 315 315 314 313 315 318 319 313 310 308 308